BEIDOU 19

Last updated on Wed May 15 2019 03:07:46 GMT+0000 (Coordinated Universal Time)

1 40749U 15037B 19134.17421358 -.00000100 00000-0 00000+0 0 9990 2 40749 55.8227 29.8592 0006555 317.2852 343.3602 1.86234548 25851

Satellite not in orbit

BEIDOU 19